Home > Weather > Durrës > Past weeks

Flag for Albania Past Weather in Durrës, Albania — Yesterday and Last 2 Weeks

Now
90 °F

Passing clouds.


Feels Like: 92 °F
Forecast: 77 / 85 °F
Wind: 9 mph from Northwest

Location: Tirana Airport

Current Time: Jul 29, 2016 at 2:26:07 PM

Latest Report: Jul 29, 2016 at 1:50 PM


Visibility: N/A

Pressure: 29.89 "Hg

Humidity: 46%

Dew Point: 66 °F

Location of DurrësLocation

Past Weather in Durrës — Graph

°F

Durrës Temperature Yesterday

Maximum temperature yesterday: 93 °F (at 1:50 PM)
Minimum temperature yesterday: 68 °F (at 5:20 AM)
Average temperature yesterday: 79 °F

High & Low Weather Summary for the Past Weeks

 TemperatureHumidityPressure
High95 °F (Jul 24, 1:50 PM)94% (Jul 16, 3:50 AM)30.01 "Hg (Jul 16, 3:50 AM)
Low61 °F (Jul 16, 3:50 AM)25% (Jul 20, 11:50 AM)29.68 "Hg (Jul 15, 1:50 PM)
Average77 °F64%29.91 "Hg
* Reported Jul 14 1:20 PM — Jul 29 1:20 PM, Durrës, Weather by CustomWeather, © 2016

Note: Actual official high and low records may vary slightly from our data, if they occured in-between our weather recording intervals... More about our weather records

Advertising

Durrës Weather History for the Previous 24 Hours

Scroll right to see more
 ConditionsComfort  
Time TempWeatherWind HumidityBarometerVisibility
1:20 PM
Fri, Jul 29
90 °FPassing clouds.9 mph46%29.89 "HgN/A
12:50 PM90 °FPassing clouds.7 mph52%29.89 "HgN/A
12:20 PM90 °FPassing clouds.8 mph55%29.92 "HgN/A
11:50 AM90 °FPassing clouds.9 mph55%29.92 "HgN/A
11:20 AM88 °FPassing clouds.5 mph52%29.92 "HgN/A
10:50 AM88 °FSunny.2 mph55%29.92 "Hg10 mi
10:20 AM88 °FSunny.2 mph52%29.92 "Hg10 mi
9:50 AM82 °FSunny.2 mph58%29.92 "Hg10 mi
9:20 AM77 °FPassing clouds.3 mph65%29.92 "HgN/A
8:50 AM77 °FPassing clouds.5 mph69%29.92 "HgN/A
8:20 AM77 °FPassing clouds.3 mph74%29.92 "HgN/A
7:50 AM73 °FPassing clouds.3 mph78%29.92 "HgN/A
7:20 AM73 °FPassing clouds.3 mph83%29.92 "HgN/A
6:50 AM72 °FPassing clouds.3 mph88%29.92 "Hg5 mi
6:20 AM72 °FPassing clouds.3 mph88%29.92 "Hg5 mi
5:50 AM70 °FPassing clouds.No wind94%29.92 "Hg4 mi
5:20 AM70 °FPassing clouds.2 mph88%29.92 "Hg4 mi
4:50 AM72 °FPassing clouds.3 mph88%29.92 "Hg4 mi
4:20 AM70 °FPassing clouds.2 mph94%29.92 "Hg4 mi
3:50 AM70 °FClear.No wind94%29.92 "Hg4 mi
3:20 AM72 °FPassing clouds.2 mph88%29.92 "Hg4 mi
2:50 AM72 °FPassing clouds.2 mph88%29.92 "Hg5 mi
2:20 AM70 °FPassing clouds.3 mph94%29.92 "HgN/A
1:50 AM73 °FClear.3 mph89%29.92 "Hg10 mi
1:20 AM72 °FClear.No wind88%29.92 "Hg10 mi
12:50 AM72 °FClear.No wind88%29.92 "Hg10 mi
12:20 AM73 °FPassing clouds.2 mph89%29.92 "HgN/A
11:50 PM
Thu, Jul 28
72 °FClear.2 mph88%29.92 "Hg10 mi
11:20 PM72 °FClear.2 mph94%29.92 "Hg10 mi
10:50 PM75 °FClear.No wind83%29.92 "Hg10 mi
10:20 PM73 °FClear.No wind89%29.92 "Hg10 mi
9:50 PM73 °FClear.No wind89%29.92 "Hg10 mi
9:20 PM75 °FPassing clouds.3 mph83%29.92 "HgN/A
8:50 PM77 °FPassing clouds.1 mph79%29.92 "HgN/A
8:20 PM77 °FPassing clouds.5 mph74%29.92 "HgN/A
7:50 PM77 °FPassing clouds.3 mph69%29.92 "HgN/A
7:20 PM79 °FPassing clouds.6 mph70%29.92 "HgN/A
6:50 PM81 °FThundershowers. Passing clouds.8 mph62%29.92 "HgN/A
6:20 PM81 °FPassing clouds.9 mph58%29.89 "HgN/A
5:50 PM84 °FPassing clouds.10 mph55%29.89 "HgN/A
5:20 PM84 °FPassing clouds.9 mph55%29.89 "HgN/A
4:50 PM88 °FPassing clouds.9 mph55%29.89 "HgN/A
4:20 PM90 °FPassing clouds.8 mph52%29.89 "HgN/A
3:50 PM90 °FPassing clouds.8 mph46%29.89 "HgN/A
3:20 PM90 °FPassing clouds.12 mph46%29.92 "HgN/A
2:50 PM91 °FPassing clouds.9 mph41%29.92 "HgN/A
2:20 PM90 °FPassing clouds.8 mph43%29.92 "HgN/A
Weather by CustomWeather, © 2016

See weather overviewHow to use our weather pages